EW3966 Weather Reports


Display with metric or nautical units.
time (UTC)temp
F
wind
direction
speed
MPH
gust
MPH
rain 1hr
in
rain 24hr
in
rain mn
in
humidity
%
barometer
mb
20260505023013 44 201 6.0 19.0 0.00 0.00 0.00 81 1002.6
20260505022614 44 197 7.0 18.0 0.00 0.00 0.00 81 1002.4
20260505022015 44 230 6.0 18.0 0.00 0.00 0.00 81 1002.5
20260505021528 44 219 7.0 20.0 0.00 0.00 0.00 81 1002.2
20260505021013 44 228 6.0 23.0 0.00 0.00 0.00 81 1002.1
20260505020512 44 192 10.0 23.0 0.00 0.00 0.00 81 1001.9
20260505020013 44 227 7.0 21.0 0.00 0.00 0.00 80 1001.8
20260505015517 44 217 7.0 19.0 0.00 0.00 0.00 81 1001.6
20260505015013 44 214 7.0 24.0 0.00 0.00 0.00 81 1001.5
20260505014513 44 257 8.0 24.0 0.00 0.00 0.00 81 1001.5
20260505014012 44 189 7.0 21.0 0.00 0.00 0.00 81 1001.5
20260505013512 44 205 8.0 21.0 0.00 0.00 0.00 81 1001.5
20260505013012 44 260 8.0 25.0 0.00 0.00 0.00 81 1001.3
20260505012612 44 272 9.0 25.0 0.00 0.00 0.00 82 1001.1
20260505012015 44 270 10.0 24.0 0.00 0.00 0.00 82 1001.1
20260505011512 44 266 9.0 25.0 0.00 0.00 0.00 82 1001.0
20260505011011 44 226 10.0 25.0 0.00 0.00 0.00 82 1001.0
20260505010512 44 66 9.0 23.0 0.00 0.00 0.00 82 1001.0
20260505010012 44 184 7.0 26.0 0.00 0.00 0.00 82 1001.0
20260505005512 44 239 11.0 26.0 0.00 0.00 0.00 82 1000.9
20260505005011 44 224 10.0 27.0 0.00 0.00 0.00 82 1001.1
20260505004521 44 245 8.0 27.0 0.00 0.00 0.00 82 1000.7
20260505004010 44 212 9.0 23.0 0.00 0.00 0.00 83 1000.7
20260505003510 44 216 10.0 27.0 0.00 0.00 0.00 83 1000.6
20260505003011 44 198 10.0 27.0 0.00 0.00 0.00 83 1000.2
20260505002613 44 265 8.0 28.0 0.00 0.00 0.00 83 1000.1
20260505002010 44 235 11.0 28.0 0.00 0.00 0.00 83 1000.1
20260505001510 43 197 9.0 26.0 0.00 0.00 0.00 83 999.9
20260505001010 44 271 9.0 26.0 0.00 0.00 0.00 83 999.9
20260505000511 44 235 10.0 26.0 0.00 0.00 0.00 84 999.8
20260505000011 44 185 8.0 24.0 0.00 0.00 0.00 84 999.6
20260504235510 44 206 10.0 22.0 0.00 0.00 0.00 84 999.5
20260504235012 43 209 8.0 22.0 0.00 0.00 0.00 84 999.2
20260504234509 43 227 10.0 24.0 0.00 0.00 0.00 84 999.1
20260504234012 43 261 8.0 27.0 0.00 0.00 0.00 84 998.8
20260504233508 43 263 8.0 23.0 0.00 0.00 0.00 84 998.6
20260504233008 43 250 8.0 24.0 0.00 0.00 0.00 84 998.6
20260504232609 43 204 11.0 28.0 0.00 0.00 0.00 84 998.2
20260504232010 43 199 10.0 28.0 0.00 0.00 0.00 84 998.1
20260504231510 43 207 11.0 31.0 0.00 0.00 0.00 84 998.0
20260504231009 43 168 12.0 31.0 0.00 0.00 0.00 84 997.9
20260504230509 43 244 12.0 30.0 0.00 0.00 0.00 84 997.9
20260504230009 43 272 13.0 30.0 0.00 0.00 0.00 84 997.5
20260504225512 43 270 9.0 26.0 0.00 0.00 0.00 84 997.5
20260504225009 43 276 15.0 31.0 0.00 0.00 0.00 84 997.2
20260504224510 43 217 12.0 28.0 0.00 0.00 0.00 84 997.2
20260504224008 43 207 11.0 28.0 0.00 0.00 0.00 84 997.4
20260504223508 43 228 11.0 33.0 0.00 0.00 0.00 84 997.1
20260504223007 43 198 13.0 33.0 0.00 0.00 0.00 84 996.9
20260504222607 43 218 14.0 29.0 0.00 0.00 0.00 85 996.8
20260504222012 43 201 11.0 27.0 0.00 0.00 0.00 85 996.7
20260504221508 43 182 9.0 27.0 0.00 0.00 0.00 85 996.5
20260504221006 43 207 12.0 27.0 0.00 0.00 0.00 85 996.5
20260504220510 43 199 10.0 31.0 0.00 0.00 0.00 85 996.4
20260504220007 43 260 11.0 28.0 0.00 0.00 0.00 85 996.2
20260504215507 43 247 12.0 29.0 0.00 0.00 0.00 85 995.8
20260504215007 43 236 12.0 41.0 0.00 0.00 0.00 85 995.8
20260504214506 43 193 12.0 41.0 0.00 0.00 0.00 85 995.7
20260504214009 43 258 12.0 31.0 0.00 0.00 0.00 85 995.3
20260504213507 43 216 10.0 30.0 0.00 0.00 0.00 85 995.4
20260504213005 43 199 15.0 28.0 0.00 0.00 0.00 85 995.3
20260504212606 43 217 12.0 26.0 0.00 0.00 0.00 85 995.2
20260504212005 43 197 12.0 26.0 0.00 0.00 0.00 85 995.2
20260504211507 43 235 11.0 30.0 0.00 0.00 0.00 85 994.8
20260504211006 43 253 10.0 28.0 0.00 0.00 0.00 85 994.9
20260504210505 43 246 11.0 28.0 0.00 0.00 0.00 85 995.0
20260504210007 43 258 13.0 27.0 0.00 0.00 0.00 84 994.8
20260504205607 43 175 12.0 31.0 0.00 0.00 0.00 84 994.6
20260504205005 43 226 12.0 31.0 0.00 0.00 0.00 84 994.5
20260504204514 43 291 12.0 26.0 0.00 0.00 0.00 84 994.6
20260504204004 43 250 10.0 27.0 0.00 0.00 0.00 84 994.3
20260504203504 43 263 12.0 28.0 0.00 0.00 0.00 84 994.5
20260504203004 43 294 11.0 28.0 0.00 0.00 0.00 83 994.2
20260504202604 43 221 12.0 28.0 0.00 0.00 0.00 84 994.2
20260504202005 43 255 12.0 24.0 0.00 0.00 0.00 84 994.2
20260504201505 43 224 12.0 25.0 0.00 0.00 0.00 84 993.9
20260504201005 43 231 12.0 27.0 0.00 0.00 0.00 84 993.9
20260504200504 43 262 12.0 27.0 0.00 0.00 0.00 85 993.9
20260504200005 43 220 10.0 32.0 0.00 0.00 0.00 85 993.8
20260504195505 43 257 12.0 32.0 0.00 0.00 0.00 85 993.7
20260504195004 43 207 13.0 29.0 0.00 0.00 0.00 85 993.8
20260504194506 43 214 12.0 29.0 0.00 0.00 0.00 85 994.0
20260504194005 43 181 10.0 29.0 0.00 0.00 0.00 85 993.8
20260504193504 43 255 11.0 28.0 0.00 0.00 0.00 85 993.9
20260504193004 43 198 9.0 25.0 0.00 0.00 0.00 85 993.8
20260504192603 43 176 8.0 33.0 0.00 0.00 0.00 85 993.8
20260504192002 43 234 9.0 33.0 0.00 0.00 0.00 85 993.8
20260504191502 43 168 13.0 31.0 0.00 0.00 0.00 84 993.7
20260504191001 43 245 10.0 26.0 0.00 0.00 0.00 85 993.7
20260504190501 43 232 11.0 26.0 0.00 0.00 0.00 84 993.6
20260504190002 43 215 10.0 26.0 0.00 0.00 0.00 84 993.7
20260504185600 43 253 10.0 22.0 0.00 0.00 0.00 83 993.6
20260504185100 43 247 8.0 29.0 0.00 0.00 0.00 83 993.6
20260504184502 43 219 11.0 26.0 0.00 0.00 0.00 83 993.7
20260504184002 43 245 12.0 25.0 0.00 0.00 0.00 83 993.4
20260504183601 43 243 7.0 27.0 0.00 0.00 0.00 83 993.4
20260504183105 44 202 9.0 27.0 0.00 0.00 0.00 83 993.4
20260504182600 44 270 11.0 28.0 0.00 0.00 0.00 82 993.1
20260504182004 44 251 13.0 28.0 0.00 0.00 0.00 82 993.2
20260504181501 44 261 11.0 29.0 0.00 0.00 0.00 82 993.3
20260504181101 44 257 12.0 29.0 0.00 0.00 0.00 82 993.2
20260504181003 44 179 11.0 29.0 0.00 0.00 0.00 82 993.4
20260504180602 44 214 11.0 26.0 0.00 0.00 0.00 82 993.4
20260504180100 44 284 12.0 26.0 0.00 0.00 0.00 82 993.2
20260504180002 44 259 9.0 25.0 0.00 0.00 0.00 82 993.1
20260504175600 44 310 9.0 25.0 0.00 0.00 0.00 82 993.3
20260504175100 44 249 8.0 28.0 0.00 0.00 0.00 82 993.2
20260504174600 44 224 12.0 28.0 0.00 0.00 0.00 81 993.7
20260504174100 44 164 8.0 32.0 0.00 0.00 0.00 81 993.1
20260504173601 44 212 11.0 32.0 0.00 0.00 0.00 80 993.1
20260504173101 45 233 10.0 26.0 0.00 0.00 0.00 80 993.2
20260504172559 45 255 13.0 37.0 0.00 0.00 0.00 79 993.0
20260504172100 45 266 12.0 37.0 0.00 0.00 0.00 79 993.1
20260504171606 45 211 11.0 26.0 0.00 0.00 0.00 79 992.9
20260504171100 45 224 12.0 28.0 0.00 0.00 0.00 79 993.0
20260504170600 45 193 9.0 28.0 0.00 0.00 0.00 79 992.9
20260504151053 46 153 10.0 28.0 0.00 0.00 0.00 84 994.0
20260504150554 46 226 10.0 28.0 0.00 0.00 0.00 83 994.0
20260504141047 46 227 8.0 23.0 0.00 0.00 0.00 88 994.4
20260504140547 46 212 9.0 24.0 0.00 0.00 0.00 89 994.4
20260504130544 43 152 4.0 10.0 0.00 0.00 0.00 97 994.7
20260504110539 43 40 2.0 7.0 0.00 0.00 0.00 97 995.4
20260504100537 43 140 3.0 10.0 0.00 0.00 0.00 97 995.6
20260504100136 43 130 3.0 5.0 0.00 0.00 0.00 97 995.5
20260504081541 43 186 1.0 10.0 0.00 0.00 0.00 98 995.1
20260504081028 43 134 3.0 10.0 0.00 0.00 0.00 97 995.3
20260504080528 43 122 3.0 10.0 0.00 0.00 0.00 97 995.3
20260504050600 37 85 3.0 8.0 0.00 0.00 0.00 97 999.5
20260504045557 37 93 1.0 10.0 0.00 0.00 0.00 97 999.8
20260504045100 37 50 2.0 7.0 0.00 0.00 0.00 97 999.7
20260504044557 37 66 1.0 7.0 0.00 0.00 0.00 97 999.8
20260504044056 37 47 2.0 7.0 0.00 0.00 0.00 97 1000.1
20260504043555 37 97 2.0 7.0 0.00 0.00 0.00 97 1000.2
20260504043058 38 86 2.0 6.0 0.00 0.00 0.00 97 1000.5
20260504042554 38 36 2.0 6.0 0.00 0.00 0.00 97 1000.6
20260504041553 38 67 2.0 8.0 0.00 0.00 0.00 97 1001.1
20260504041053 38 87 3.0 8.0 0.00 0.00 0.00 97 1001.1
20260504040552 38 62 3.0 7.0 0.00 0.00 0.00 97 1001.0
20260504040052 38 52 3.0 8.0 0.00 0.00 0.00 97 1001.0
20260504035552 38 85 3.0 9.0 0.00 0.00 0.00 97 1000.9
20260504035051 38 268 1.0 9.0 0.00 0.00 0.00 97 1001.3
20260504034550 38 181 2.0 6.0 0.00 0.00 0.00 97 1001.8
20260504034048 38 45 2.0 6.0 0.00 0.00 0.00 97 1001.8
20260504033550 38 130 2.0 7.0 0.00 0.00 0.00 97 1001.8
20260504033048 38 161 4.0 7.0 0.00 0.00 0.00 97 1001.9
20260504032546 38 131 3.0 12.0 0.00 0.00 0.00 97 1002.0
20260504031545 38 139 3.0 9.0 0.00 0.00 0.00 97 1002.3
20260504031044 38 197 4.0 11.0 0.00 0.00 0.00 97 1002.3
20260504030543 38 57 4.0 11.0 0.00 0.00 0.00 97 1002.2
20260504030042 38 81 3.0 7.0 0.00 0.00 0.00 97 1002.3
20260504025542 38 115 2.0 7.0 0.00 0.00 0.00 97 1002.4
20260504025041 38 150 2.0 8.0 0.00 0.00 0.00 97 1002.5
20260504024544 38 74 3.0 8.0 0.00 0.00 0.00 97 1002.4
20260504024042 38 95 2.0 8.0 0.00 0.00 0.00 97 1002.3
20260504023538 38 60 2.0 7.0 0.00 0.00 0.00 97 1002.4
20260504023038 38 158 3.0 7.0 0.00 0.00 0.00 97 1002.5